7L2IWN-13 Weather Reports


time (UTC)temp
F
wind
direction
speed
knots
gust
knots
rain 1hr
in
rain 24hr
in
rain mn
in
humidity
%
barometer
mb
20260902062403 88 18 0.9 1.7 0.00 0.00 0.00 75 1012.3
20260902061202 86 15 1.7 4.3 0.00 0.00 0.00 76 1012.3
20260902060002 87 342 2.6 5.2 0.00 0.00 0.00 75 1012.2
20260902054803 88 10 4.3 7.0 0.00 0.00 0.00 73 1012.5
20260902053602 88 348 1.7 5.2 0.00 0.00 0.00 71 1012.1
20260902052402 89 61 1.7 2.6 0.00 0.00 0.00 70 1012.5
20260902051202 89 19 4.3 6.1 0.00 0.00 0.00 70 1012.8
20260902050002 88 340 4.3 5.2 0.00 0.00 0.00 71 1012.6
20260902044803 89 32 0.9 1.7 0.00 0.00 0.00 69 1013.1
20260902043603 88 345 1.7 2.6 0.00 0.00 0.00 70 1013.2
20260902042404 88 31 0.9 1.7 0.00 0.00 0.00 69 1013.0
20260902041203 87 72 2.6 5.2 0.00 0.00 0.00 71 1013.3
20260902040002 86 326 2.6 6.1 0.00 0.00 0.00 73 1013.2
20260902034803 87 75 2.6 5.2 0.00 0.00 0.00 71 1013.3
20260902033603 87 59 0.9 0.9 0.00 0.00 0.00 71 1013.8
20260902032403 86 24 2.6 5.2 0.00 0.00 0.00 73 1013.5
20260902031202 87 93 0.9 4.3 0.00 0.00 0.00 71 1013.4
20260902030003 86 50 0.9 1.7 0.00 0.00 0.00 73 1013.9
20260902024802 85 48 2.6 4.3 0.00 0.00 0.00 74 1013.9
20260902023602 86 41 1.7 5.2 0.00 0.00 0.00 75 1014.0
20260902022403 84 95 0.0 0.9 0.00 0.00 0.00 76 1014.1
20260902021202 81 323 0.9 2.6 0.00 0.00 0.00 80 1014.2
20260902020002 83 10 0.9 1.7 0.00 0.00 0.00 80 1014.3
20260902014803 81 30 2.6 4.3 0.00 0.00 0.00 83 1014.6
20260902013602 80 339 1.7 2.6 0.00 0.00 0.00 85 1014.5
20260902012403 81 54 0.9 1.7 0.00 0.00 0.00 81 1014.6
20260902011202 82 26 1.7 1.7 0.00 0.00 0.00 83 1014.6
20260902010003 80 13 0.0 0.9 0.00 0.00 0.00 83 1015.0
20260902004801 81 27 0.9 1.7 0.00 0.00 0.00 86 1015.1
20260902003603 79 114 0.0 0.0 0.00 0.00 0.00 89 1015.1
20260902002403 79 148 1.7 2.6 0.00 0.00 0.00 89 1014.8
20260902001203 77 123 0.0 0.9 0.00 0.00 0.00 92 1015.0
20260902000005 77 93 0.0 0.9 0.00 0.00 0.00 93 1015.0
20260901234803 76 70 0.9 1.7 0.00 0.00 0.00 94 1015.0
20260901233605 76 44 0.0 0.9 0.00 0.00 0.00 94 1014.9
20260901232404 75 97 0.0 0.0 0.00 0.00 0.00 94 1014.9
20260901231204 75 144 0.0 0.9 0.00 0.00 0.00 96 1014.9
20260901230004 74 203 1.7 2.6 0.00 0.00 0.00 97 1014.8
20260901224803 74 198 0.9 1.7 0.00 0.00 0.00 99 1014.9
20260901223604 73 287 0.0 0.0 0.00 0.00 0.00 99 1014.8
20260901222404 73 260 0.0 0.9 0.00 0.00 0.00 99 1014.9
20260901221204 72 194 0.0 0.9 0.00 0.00 0.00 99 1014.8
20260901220004 72 128 0.9 1.7 0.00 0.00 0.00 99 1014.6
20260901214803 72 270 0.9 1.7 0.00 0.00 0.00 99 1014.9
20260901213603 72 268 0.0 0.0 0.00 0.00 0.00 99 1015.1
20260901212404 72 268 0.0 0.0 0.00 0.00 0.00 99 1015.0
20260901211203 71 268 1.7 2.6 0.00 0.00 0.00 99 1015.1
20260901210002 71 258 0.9 0.9 0.00 0.01 0.00 99 1014.9
20260901204802 71 257 0.9 0.9 0.00 0.01 0.00 99 1015.1
20260901203602 71 257 0.0 0.0 0.00 0.01 0.00 99 1015.4
20260901202401 71 257 0.0 0.0 0.00 0.01 0.00 99 1015.1
20260901201202 71 258 0.9 0.9 0.00 0.02 0.00 99 1015.0
20260901200002 71 258 0.9 1.7 0.00 0.02 0.00 99 1015.3
20260901194803 71 254 0.9 1.7 0.00 0.02 0.00 99 1015.0
20260901193604 71 251 0.9 1.7 0.00 0.02 0.00 99 1015.2
20260901192402 71 229 0.9 1.7 0.00 0.02 0.00 99 1015.3
20260901191202 71 250 1.7 2.6 0.00 0.02 0.00 99 1015.1
20260901190003 71 244 0.0 0.9 0.00 0.02 0.00 99 1015.3
20260901184802 71 238 1.7 1.7 0.00 0.02 0.00 99 1015.6
20260901183604 71 240 0.0 0.9 0.00 0.02 0.00 99 1015.2
20260901182403 71 234 0.0 0.0 0.00 0.02 0.00 99 1015.6
20260901181202 71 234 0.0 0.9 0.00 0.02 0.00 99 1015.3
20260901180002 72 234 0.0 0.0 0.00 0.02 0.00 99 1015.5
20260901174803 72 234 0.0 0.0 0.00 0.02 0.00 99 1015.5
20260901173603 72 234 0.0 0.0 0.00 0.02 0.00 99 1015.4
20260901172402 72 234 0.9 0.9 0.00 0.02 0.00 99 1015.5
20260901171203 72 234 0.0 0.0 0.00 0.02 0.00 99 1015.6
20260901170002 72 234 0.0 0.0 0.00 0.02 0.00 99 1015.6
20260901164804 72 234 0.0 0.0 0.00 0.02 0.00 99 1015.8
20260901163603 72 234 0.0 0.0 0.00 0.02 0.00 99 1015.6
20260901162403 72 216 0.9 1.7 0.00 0.02 0.00 99 1015.8
20260901161203 72 245 0.9 1.7 0.00 0.02 0.00 99 1015.8
20260901160003 72 236 0.9 1.7 0.00 0.02 0.00 99 1016.2
20260901154803 72 251 0.9 1.7 0.00 0.02 0.00 99 1016.0
20260901153603 72 211 0.9 0.9 0.00 0.02 0.00 99 1016.2
20260901152401 72 252 0.0 0.9 0.00 0.02 0.00 99 1016.2
20260901151203 72 246 0.0 0.9 0.00 0.02 0.00 99 1016.3
20260901150003 72 245 0.0 0.9 0.00 0.02 0.02 99 1016.4
20260901144803 72 245 0.0 0.9 0.00 0.02 0.02 99 1016.5
20260901143602 72 244 0.9 0.9 0.00 0.02 0.02 99 1016.6
20260901142403 72 245 0.9 1.7 0.00 0.02 0.02 99 1016.4
20260901141201 72 244 0.9 0.9 0.00 0.02 0.02 99 1016.6
20260901140002 72 242 0.0 0.9 0.00 0.02 0.02 99 1016.6
20260901134802 72 217 0.9 1.7 0.00 0.02 0.02 99 1016.5
20260901133602 72 232 0.0 1.7 0.00 0.02 0.02 99 1016.7
20260901132403 72 219 0.9 1.7 0.00 0.02 0.02 99 1016.7
20260901131203 72 240 0.9 1.7 0.00 0.02 0.02 99 1016.6
20260901130004 72 240 1.7 1.7 0.00 0.02 0.02 99 1016.5
20260901124803 72 203 0.9 1.7 0.00 0.02 0.02 99 1016.7
20260901123602 72 236 0.9 1.7 0.00 0.02 0.02 99 1016.5
20260901122404 72 244 1.7 1.7 0.00 0.02 0.02 99 1016.9
20260901121202 72 272 1.7 2.6 0.00 0.02 0.02 99 1016.7
20260901120002 72 236 0.9 0.9 0.00 0.02 0.02 99 1016.9
20260901114802 72 237 1.7 1.7 0.00 0.02 0.02 99 1016.8
20260901113603 73 232 1.7 1.7 0.00 0.02 0.02 99 1016.9
20260901112402 73 216 0.9 1.7 0.00 0.02 0.02 99 1017.1
20260901111203 73 239 0.9 0.9 0.00 0.02 0.02 99 1016.9
20260901110004 73 233 1.7 2.6 0.00 0.02 0.02 99 1016.8
20260901104803 73 240 1.7 4.3 0.00 0.02 0.02 99 1016.8
20260901103602 73 254 0.9 2.6 0.00 0.02 0.02 99 1016.5
20260901102403 73 285 1.7 2.6 0.00 0.02 0.02 99 1016.3
20260901101204 73 206 0.9 1.7 0.00 0.02 0.02 99 1016.1
20260901100003 73 216 1.7 2.6 0.00 0.02 0.02 99 1016.2
20260901094803 73 217 0.9 1.7 0.00 0.02 0.02 99 1016.0
20260901093603 73 224 1.7 2.6 0.00 0.02 0.02 99 1016.1
20260901092404 73 208 0.9 1.7 0.00 0.02 0.02 99 1015.9
20260901091203 73 225 0.9 1.7 0.00 0.02 0.02 99 1015.8
20260901090004 73 229 1.7 2.6 0.00 0.02 0.02 99 1015.7
20260901084802 74 231 0.9 1.7 0.00 0.02 0.02 99 1016.0
20260901083603 74 214 0.9 1.7 0.00 0.02 0.02 99 1015.6
20260901082404 74 206 1.7 2.6 0.00 0.02 0.02 99 1015.7
20260901081203 74 210 0.9 1.7 0.00 0.02 0.02 99 1015.8
20260901080005 74 212 1.7 2.6 0.00 0.02 0.02 99 1015.9
20260901074803 74 234 1.7 1.7 0.00 0.02 0.02 99 1015.8
20260901073602 74 255 0.0 0.9 0.00 0.02 0.02 99 1015.7
20260901072402 74 125 0.0 0.0 0.00 0.02 0.02 99 1015.8
20260901071203 74 228 0.9 1.7 0.00 0.02 0.02 99 1015.9
20260901070004 74 159 0.9 1.7 0.00 0.02 0.02 99 1015.6
20260901064802 73 246 0.0 0.0 0.00 0.02 0.02 99 1015.9
20260901063602 73 230 0.9 1.7 0.00 0.02 0.02 99 1015.8